Sitka, AK

8:15 AM AKST on February 10, 2016 (GMT -0900)
Sitka Rocky Gutierrez

Weather History for PASI - July, 2012

Change the Weather History Date:

Wednesday, July 4, 2012

  Actual Average Record
Temperature  
Mean Temperature 52 °F -  
Max Temperature 55 °F 60 °F - (-1)
Min Temperature 48 °F 50 °F - (-1)
Degree Days  
Heating Degree Days 14    
Growing Degree Days 2 (Base 50)    
Moisture  
Dew Point 48 °F    
Average Humidity 88    
Maximum Humidity 100    
Minimum Humidity 82    
Precipitation  
Precipitation 0.00 in - - ()
Sea Level Pressure  
Sea Level Pressure 30.06 in    
Wind  
Wind Speed 1 mph (SW)    
Max Wind Speed 8 mph    
Max Gust Speed -    
Visibility 10 miles    
Events Rain    
Averages and records for this station are not official NWS values.
T = Trace of Precipitation, MM = Missing Value Source: NWS Daily Summary

Daily Weather History Graph

Daily Weather History Graph

Search for Another Location

Airport or City:

Trip Planner

Search our weather history database for the weather conditions in past years. The results will help you decide how hot, cold, wet, or windy it might be!

Date:

Astronomy

Jul. 04, 2012 Rise Set
Actual Time 4:15 AM AKDT 9:56 PM AKDT
Civil Twilight 3:09 AM AKDT 11:01 PM AKDT
Nautical Twilight 1:38 AM AKDT 12:33 AM AKDT
Astronomical Twilight Sun does not rise Sun does not rise
Moon 10:05 PM AKDT (7/4) 5:51 AM AKDT (7/4)
Length of Visible Light 19h 51m
Length of Day
17h 40m
Full, 98% of the Moon is Illuminated
Jul 4
Full
Jul 10
Last Quarter
Jul 18
New
Jul 26
First Quarter
Aug 1
Full

Hourly Weather History & Observations

Time (AKDT) Temp. Dew Point Humidity Pressure Visibility Wind Dir Wind Speed Gust Speed Precip Events Conditions
12:00 AM 50.0 °F 48.2 °F 94% 30.02 in 9.0 mi Calm Calm - N/A   Overcast
12:49 AM 51.8 °F 48.2 °F 88% 30.02 in 10.0 mi Calm Calm - N/A   Overcast
12:53 AM 50.0 °F 46.9 °F 89% 30.03 in 10.0 mi Calm Calm - N/A   Overcast
1:06 AM 51.8 °F 46.4 °F 82% 30.02 in 10.0 mi Calm Calm - N/A   Overcast
1:53 AM 48.0 °F 46.0 °F 93% 30.03 in 10.0 mi East 3.5 mph - N/A   Mostly Cloudy
2:53 AM 48.0 °F 48.0 °F 100% 30.04 in 10.0 mi Calm Calm - N/A   Overcast
3:53 AM 48.0 °F 46.9 °F 96% 30.04 in 10.0 mi Calm Calm - N/A   Overcast
4:53 AM 48.9 °F 48.0 °F 97% 30.04 in 10.0 mi Calm Calm - N/A   Overcast
5:25 AM 48.2 °F 46.4 °F 93% 30.04 in 10.0 mi Calm Calm - N/A   Overcast
5:48 AM 48.2 °F 48.2 °F 100% 30.05 in 10.0 mi Calm Calm - N/A   Overcast
5:53 AM 48.9 °F 48.0 °F 97% 30.05 in 10.0 mi Calm Calm - N/A   Overcast
6:53 AM 50.0 °F 46.9 °F 89% 30.06 in 10.0 mi Calm Calm - N/A   Overcast
7:53 AM 51.1 °F 46.9 °F 86% 30.06 in 10.0 mi Calm Calm - N/A   Overcast
8:53 AM 52.0 °F 48.0 °F 86% 30.06 in 10.0 mi SW 3.5 mph - N/A   Overcast
9:53 AM 52.0 °F 48.9 °F 89% 30.06 in 10.0 mi SW 3.5 mph - N/A   Overcast
10:10 AM 51.8 °F 48.2 °F 88% 30.06 in 10.0 mi SW 3.5 mph - N/A   Overcast
10:53 AM 53.1 °F 50.0 °F 89% 30.07 in 10.0 mi SW 3.5 mph - N/A   Overcast
11:53 AM 53.1 °F 48.9 °F 86% 30.08 in 10.0 mi Calm Calm - N/A   Overcast
12:53 PM 54.0 °F 50.0 °F 86% 30.09 in 10.0 mi SSW 3.5 mph - N/A   Overcast
1:53 PM 54.0 °F 48.9 °F 83% 30.09 in 10.0 mi SW 5.8 mph - N/A   Overcast
2:53 PM 55.0 °F 50.0 °F 83% 30.09 in 10.0 mi SW 6.9 mph - N/A   Overcast
3:53 PM 54.0 °F 48.9 °F 83% 30.09 in 10.0 mi SW 5.8 mph - N/A   Overcast
4:53 PM 53.1 °F 48.0 °F 83% 30.09 in 10.0 mi WSW 6.9 mph - N/A   Overcast
5:10 PM 53.6 °F 48.2 °F 82% 30.08 in 10.0 mi WSW 6.9 mph - N/A   Overcast
5:21 PM 53.6 °F 48.2 °F 82% 30.08 in 10.0 mi SW 8.1 mph - N/A   Overcast
5:31 PM 53.6 °F 48.2 °F 82% 30.08 in 10.0 mi SW 5.8 mph - 0.00 in Rain Light Rain
5:43 PM 51.8 °F 48.2 °F 88% 30.08 in 6.0 mi SSW 4.6 mph - 0.00 in Rain Light Rain
5:53 PM 52.0 °F 48.9 °F 89% 30.09 in 5.0 mi Calm Calm - 0.00 in Rain Light Rain
6:53 PM 53.1 °F 48.0 °F 83% 30.08 in 10.0 mi Calm Calm - 0.00 in   Overcast
7:53 PM 52.0 °F 48.0 °F 86% 30.07 in 10.0 mi Calm Calm - N/A   Overcast
8:04 PM 51.8 °F 46.4 °F 82% 30.06 in 10.0 mi Calm Calm - N/A   Overcast
8:20 PM 51.8 °F 46.4 °F 82% 30.06 in 10.0 mi Calm Calm - N/A   Overcast
8:30 PM 51.8 °F 46.4 °F 82% 30.06 in 10.0 mi Calm Calm - N/A   Overcast
8:53 PM 52.0 °F 46.9 °F 83% 30.07 in 10.0 mi Calm Calm - N/A   Overcast
9:53 PM 51.1 °F 48.0 °F 89% 30.06 in 10.0 mi Calm Calm - N/A   Overcast
10:53 PM 50.0 °F 48.0 °F 93% 30.06 in 10.0 mi East 3.5 mph - N/A   Overcast
11:53 PM 50.0 °F 46.9 °F 89% 30.06 in 10.0 mi Calm Calm - N/A   Overcast